Wind_Speed
19 20 20 19 18 17 16 15 15 13 11 10 9 9 8 8 8 8 8 8 9 9 9 10 10 10 11 11 12 12 13 13 13 12 12 12 11 12 14 15 17 18 17
19 21 22 21 21 20 19 19 18 17 16 14 13 12 12 12 12 11 11 11 11 11 12 12 13 13 13 14 15 16 16 16 16 16 16 15 15 14 15 16 17 19 20
19 20 21 22 23 23 22 22 21 20 20 18 16 16 15 16 15 14 14 14 14 14 14 14 15 15 16 16 17 18 19 20 20 20 20 19 19 18 17 17 17 19 21
20 20 22 23 23 24 24 23 23 23 23 22 21 19 18 18 18 18 17 16 16 16 16 16 17 17 18 18 18 19 20 22 22 23 23 23 22 21 20 19 19 19 20
22 22 23 23 24 24 25 25 24 25 25 25 24 23 22 21 20 20 20 19 18 18 18 18 19 19 20 20 20 21 21 23 24 24 24 25 24 24 23 22 21 20 20
25 25 24 24 25 25 25 25 25 25 27 28 27 26 26 25 23 22 22 21 21 21 20 20 20 21 21 22 22 22 23 23 24 24 25 25 26 25 24 23 23 22 22
28 27 27 26 26 26 26 25 26 26 27 28 29 29 28 28 27 25 24 23 23 23 22 21 22 22 22 22 23 23 23 23 24 24 25 26 26 26 25 24 23 24 23
30 29 29 27 27 27 27 26 26 26 25 26 29 31 30 29 29 28 27 25 24 24 23 23 23 23 23 23 24 24 23 23 24 24 25 25 26 26 26 25 24 24 24
31 29 29 28 27 27 27 27 26 26 25 25 27 30 31 31 29 29 29 27 25 24 24 23 24 24 24 25 24 24 24 24 23 24 24 25 25 26 26 26 25 25 25
30 28 29 28 28 27 27 25 25 25 26 26 27 28 30 31 31 31 30 30 28 26 25 23 23 24 25 26 25 25 25 25 25 24 24 25 25 26 27 26 25 25 25
32 30 28 27 28 27 26 27 26 27 27 27 27 28 29 30 32 32 32 31 30 28 26 24 23 23 25 26 26 25 25 25 25 25 25 25 25 26 27 27 26 26 25
32 32 30 27 27 27 25 26 26 27 27 27 28 29 29 30 32 33 33 32 30 28 27 27 25 23 23 25 26 25 25 24 25 25 25 26 26 27 27 27 28 27 26
35 35 32 30 28 27 26 26 26 27 28 28 29 30 31 32 33 34 34 33 30 28 27 28 28 25 23 23 24 24 24 24 24 24 24 25 26 27 28 28 29 28 28
37 36 34 32 31 30 28 27 27 27 27 28 30 31 32 33 35 35 35 33 30 28 27 27 27 25 23 22 23 23 23 23 23 23 23 24 25 27 28 29 29 29 29
37 35 34 33 33 31 29 29 28 28 28 29 31 32 34 35 35 36 35 33 30 28 26 26 25 24 22 22 21 21 22 21 22 22 23 23 25 26 27 28 29 30 30
32 32 32 32 31 31 30 30 30 30 29 30 32 33 34 33 33 34 33 31 28 27 26 25 23 23 21 21 20 20 21 21 21 21 21 22 23 25 26 27 28 29 29
27 27 28 28 28 28 28 29 29 29 31 32 32 33 32 31 31 30 28 26 25 24 24 23 21 21 20 20 19 19 20 21 21 21 22 23 23 24 25 26 27 29 29
17 18 19 21 22 22 23 24 25 25 26 27 27 27 26 25 24 24 23 22 22 22 22 21 19 19 19 19 19 19 20 20 21 21 22 23 24 24 24 25 26 27 28
8 9 10 11 13 13 15 16 17 18 18 18 18 18 18 19 19 19 19 20 20 20 19 19 18 18 19 19 19 20 20 20 20 21 23 24 25 25 25 24 24 25 25
4 5 5 6 8 9 10 11 13 14 14 14 15 15 16 17 17 18 18 19 19 18 18 18 18 19 19 19 19 20 20 20 20 21 22 23 24 25 24 24 24 24 24
5 6 7 7 8 10 11 11 13 14 15 16 16 17 17 17 18 18 18 18 18 18 18 19 19 19 19 19 19 19 20 19 19 19 19 21 22 24 25 25 25 26 26
10 11 12 13 14 14 15 15 16 17 18 18 18 18 18 18 18 18 19 18 18 18 19 19 19 19 19 19 19 19 19 18 18 18 18 18 19 22 24 25 25 26 27
12 13 14 15 17 18 19 19 20 20 21 21 21 21 20 20 20 20 19 19 18 18 18 18 18 18 18 19 19 19 18 18 18 17 17 17 17 19 21 23 25 27 28
14 15 15 17 18 20 21 22 23 23 23 22 22 22 22 21 21 20 20 19 18 18 18 17 17 17 17 18 19 19 18 18 18 18 17 17 17 17 18 20 21 24 26
14 15 15 17 18 19 21 22 23 23 23 23 23 22 22 22 21 20 19 19 18 17 17 16 15 15 16 17 17 17 17 17 17 17 16 16 17 18 19 21 23 24 26
14 14 15 15 16 17 18 19 19 20 21 21 20 21 21 21 20 19 19 18 17 16 16 15 14 14 14 14 15 15 15 15 15 16 16 16 17 18 19 21 22 24 26
Wind_Direction
269 271 273 275 277 279 281 282 281 281 284 287 291 298 300 296 288 283 281 281 282 281 280 278 277 277 277 277 277 278 279 280 281 281 278 276 273 267 258 252 246 243 242
266 268 269 270 272 273 275 276 276 276 277 279 283 287 289 288 287 285 282 283 286 286 286 286 285 283 281 278 277 275 275 274 274 274 274 274 272 269 263 258 252 247 244
263 265 267 268 269 271 274 276 277 276 275 273 273 275 279 282 283 282 282 284 287 288 290 291 292 290 287 283 280 278 276 274 272 270 270 270 270 268 265 260 258 252 247
259 260 263 265 267 270 273 274 274 272 270 269 269 271 273 276 278 278 279 282 286 288 290 291 293 293 291 288 285 281 278 275 272 269 267 266 266 265 264 261 258 257 253
259 258 258 261 263 265 268 269 270 268 267 267 267 269 271 274 274 274 275 278 281 284 287 290 292 292 292 290 288 285 281 276 273 269 265 263 262 262 262 260 257 256 256
258 259 258 259 262 262 264 265 266 268 265 263 263 266 270 273 271 268 270 274 279 282 286 289 291 292 292 291 289 287 283 278 274 270 266 262 260 259 259 258 256 255 254
258 258 258 260 262 263 264 266 266 268 269 263 259 261 265 268 268 266 265 268 274 280 285 287 290 291 291 291 289 288 285 281 276 272 268 263 259 257 255 255 255 253 253
256 256 257 260 261 262 264 265 267 269 272 267 261 259 261 263 265 264 263 263 268 274 280 285 288 290 289 290 289 288 286 282 279 274 269 263 259 255 253 252 252 252 252
256 254 256 258 260 261 264 265 266 269 271 267 262 259 259 260 262 263 264 264 264 268 274 280 284 287 287 288 288 286 283 281 278 274 268 263 259 255 252 250 250 251 251
264 259 258 259 259 262 264 266 266 270 269 264 261 259 257 256 258 259 261 264 266 268 272 275 279 283 285 286 286 284 281 279 276 274 269 263 259 255 251 250 249 250 250
269 269 268 264 263 265 265 266 269 269 268 263 259 257 256 255 256 256 257 260 264 267 270 273 274 276 279 282 283 282 280 279 275 273 269 263 258 254 251 249 248 248 248
274 275 277 278 272 269 268 268 267 267 265 261 257 256 255 255 255 255 255 256 258 264 270 274 274 274 274 277 278 280 279 277 275 271 267 261 257 254 250 248 248 247 247
277 278 278 277 271 269 266 265 264 262 260 258 256 255 254 254 254 254 254 253 255 259 265 270 274 276 274 273 273 275 276 276 274 271 266 261 256 253 249 248 248 248 247
274 273 271 269 267 266 263 262 262 260 258 257 255 254 255 255 254 255 252 251 252 257 261 266 270 273 273 272 272 273 273 274 274 270 267 262 256 252 250 248 248 249 249
271 268 265 263 264 263 261 258 259 261 260 257 256 256 257 256 255 252 250 250 252 256 261 263 267 270 270 270 270 271 272 272 273 270 267 262 257 253 251 249 248 249 250
268 264 263 261 260 260 259 259 260 259 258 256 256 257 258 256 254 252 251 251 252 256 259 261 263 265 266 267 268 269 269 270 270 268 267 263 258 254 253 251 249 249 251
265 262 261 260 259 258 258 259 260 258 255 255 257 256 254 252 251 250 248 248 251 255 257 258 259 260 262 264 266 268 270 270 267 266 266 262 259 256 254 252 251 251 252
262 260 259 257 256 254 253 252 250 251 252 253 252 250 248 247 246 245 245 248 251 253 255 255 256 257 258 261 264 267 268 269 268 265 266 263 261 257 255 255 255 255 255
262 255 248 244 241 239 239 240 240 243 245 247 248 248 246 244 245 247 249 251 252 253 254 255 254 255 256 259 261 264 267 267 268 266 266 265 262 257 254 255 256 259 260
254 242 234 235 234 229 231 237 239 240 244 247 249 250 250 249 249 250 251 253 255 256 256 256 256 255 255 257 259 262 265 266 269 270 268 264 261 255 253 254 256 257 260
300 289 276 268 261 256 253 254 255 255 255 255 254 253 252 252 252 252 254 256 258 258 258 258 258 257 257 258 260 262 265 267 268 270 269 267 265 257 254 256 257 256 258
307 299 292 287 283 280 275 272 267 264 262 262 261 259 258 257 256 256 257 257 258 258 258 258 259 258 258 259 260 261 263 265 268 271 272 272 270 264 259 258 257 257 259
313 304 296 289 284 281 279 276 273 271 268 265 263 262 262 260 259 258 258 257 257 258 259 260 259 259 258 258 259 259 261 262 265 269 271 273 274 271 269 265 264 264 264
316 308 300 294 288 282 279 276 273 271 268 265 262 261 260 258 258 257 257 257 257 258 259 260 259 259 258 259 259 260 260 261 263 266 268 270 272 273 273 272 273 272 272
330 320 311 303 295 288 283 278 274 270 267 264 260 257 255 254 254 254 254 254 254 256 258 259 260 258 258 258 259 260 259 260 263 267 270 272 272 274 277 277 277 276 277
344 335 327 320 310 299 291 285 279 272 267 263 259 255 253 251 250 249 248 248 248 250 252 253 254 254 256 258 259 260 261 261 263 267 269 273 276 278 280 281 281 281 280
Height
5910 5909 5909 5909 5909 5908 5908 5908 5907 5907 5907 5907 5906 5905 5905 5904 5904 5904 5903 5903 5903 5903 5903 5903 5903 5903 5903 5903 5904 5904 5904 5904 5904 5904 5904 5904 5904 5904 5904 5905 5905 5906 5907
5906 5905 5905 5905 5905 5905 5905 5905 5905 5904 5904 5904 5904 5904 5903 5903 5903 5902 5902 5901 5901 5901 5901 5901 5901 5901 5901 5901 5901 5901 5901 5902 5902 5902 5902 5902 5902 5901 5901 5901 5902 5903 5904
5902 5901 5901 5901 5900 5900 5901 5900 5900 5900 5900 5901 5901 5901 5901 5900 5900 5900 5899 5899 5898 5898 5898 5898 5898 5898 5898 5898 5898 5898 5898 5898 5898 5898 5898 5898 5898 5898 5898 5898 5898 5899 5900
5898 5897 5896 5896 5896 5895 5895 5896 5896 5896 5896 5896 5897 5897 5898 5897 5897 5896 5896 5896 5895 5895 5895 5895 5895 5895 5894 5894 5894 5894 5894 5894 5893 5893 5893 5893 5894 5894 5894 5894 5894 5894 5895
5891 5892 5892 5891 5891 5891 5890 5890 5891 5890 5890 5891 5891 5892 5892 5893 5893 5893 5892 5892 5892 5892 5892 5892 5891 5890 5890 5890 5889 5889 5889 5888 5888 5888 5888 5888 5888 5889 5889 5889 5890 5890 5890
5884 5884 5885 5885 5885 5885 5885 5885 5885 5885 5884 5885 5885 5885 5886 5887 5888 5889 5888 5887 5887 5887 5887 5887 5887 5886 5885 5885 5884 5884 5883 5883 5882 5882 5882 5882 5883 5883 5884 5884 5885 5885 5886
5877 5877 5877 5878 5878 5878 5878 5878 5878 5878 5878 5878 5878 5879 5880 5881 5882 5883 5884 5883 5882 5882 5882 5882 5882 5881 5880 5880 5879 5878 5878 5877 5877 5876 5876 5876 5877 5877 5878 5879 5879 5880 5881
5869 5869 5870 5870 5871 5871 5871 5872 5871 5871 5871 5871 5871 5872 5873 5875 5875 5876 5877 5879 5879 5877 5877 5877 5877 5876 5875 5874 5874 5873 5872 5872 5871 5871 5870 5870 5870 5871 5872 5873 5874 5875 5875
5859 5860 5862 5862 5863 5863 5863 5864 5865 5864 5864 5864 5864 5865 5866 5867 5869 5869 5870 5872 5873 5873 5872 5872 5871 5870 5869 5869 5868 5867 5867 5866 5865 5864 5864 5864 5864 5865 5866 5867 5868 5869 5870
5849 5851 5852 5853 5854 5855 5855 5856 5856 5857 5857 5857 5857 5858 5859 5860 5862 5863 5864 5864 5865 5866 5867 5867 5867 5865 5863 5862 5862 5861 5861 5860 5859 5859 5858 5858 5858 5859 5860 5861 5862 5863 5864
5839 5840 5842 5844 5845 5846 5847 5847 5848 5849 5849 5849 5850 5851 5852 5853 5854 5856 5857 5858 5858 5859 5860 5860 5861 5860 5858 5856 5855 5855 5854 5854 5853 5852 5852 5852 5852 5853 5854 5855 5856 5857 5858
5832 5833 5834 5835 5836 5837 5838 5839 5840 5841 5841 5841 5842 5843 5844 5846 5847 5848 5849 5850 5852 5852 5852 5852 5853 5854 5853 5851 5849 5849 5848 5847 5847 5846 5846 5846 5846 5847 5848 5849 5850 5851 5852
5826 5827 5827 5828 5828 5829 5830 5830 5831 5832 5832 5833 5834 5835 5836 5838 5839 5841 5842 5843 5844 5846 5846 5845 5845 5846 5846 5845 5844 5843 5842 5841 5840 5840 5840 5840 5840 5841 5842 5843 5844 5845 5846
5819 5819 5819 5820 5821 5821 5821 5822 5823 5823 5824 5825 5825 5826 5828 5829 5831 5832 5834 5835 5837 5838 5839 5839 5838 5838 5839 5838 5837 5836 5835 5835 5834 5834 5834 5834 5834 5835 5836 5837 5838 5840 5840
5809 5809 5810 5811 5812 5812 5813 5813 5814 5815 5816 5816 5817 5818 5819 5820 5822 5823 5825 5827 5829 5830 5831 5832 5832 5831 5832 5831 5831 5830 5829 5829 5828 5828 5828 5828 5828 5829 5830 5831 5832 5833 5834
5799 5799 5800 5801 5802 5803 5803 5805 5806 5806 5807 5808 5808 5809 5810 5811 5813 5814 5816 5818 5820 5822 5823 5824 5825 5825 5825 5824 5824 5824 5824 5824 5823 5823 5823 5823 5823 5823 5824 5825 5826 5827 5828
5790 5790 5791 5792 5793 5794 5795 5796 5797 5798 5799 5799 5800 5800 5801 5803 5804 5806 5808 5810 5813 5815 5816 5817 5818 5818 5818 5818 5818 5818 5818 5818 5817 5817 5817 5817 5818 5818 5819 5819 5820 5821 5822
5784 5784 5784 5785 5786 5787 5788 5788 5789 5790 5791 5791 5792 5793 5794 5795 5797 5799 5802 5804 5807 5808 5809 5810 5811 5812 5812 5813 5813 5813 5813 5812 5812 5812 5812 5812 5812 5813 5813 5814 5815 5815 5816
5780 5780 5780 5780 5781 5781 5782 5783 5783 5784 5785 5785 5786 5787 5788 5790 5792 5794 5796 5798 5800 5802 5803 5804 5805 5806 5807 5807 5807 5807 5807 5807 5807 5806 5806 5806 5807 5807 5807 5808 5809 5810 5810
5778 5778 5778 5777 5777 5778 5778 5778 5779 5779 5780 5781 5781 5783 5784 5785 5787 5789 5791 5793 5794 5795 5797 5798 5799 5800 5801 5802 5802 5802 5802 5802 5802 5801 5801 5800 5801 5801 5802 5803 5803 5804 5804
5778 5777 5776 5775 5775 5775 5775 5775 5775 5776 5776 5777 5778 5778 5780 5781 5783 5784 5786 5787 5788 5790 5791 5792 5793 5795 5795 5796 5796 5796 5797 5797 5797 5796 5796 5795 5796 5796 5796 5797 5797 5798 5798
5776 5775 5774 5773 5772 5771 5771 5771 5771 5772 5772 5773 5773 5774 5775 5776 5777 5779 5780 5781 5783 5784 5786 5787 5788 5789 5790 5790 5791 5791 5792 5792 5792 5792 5791 5791 5791 5791 5791 5791 5791 5791 5791
5774 5772 5771 5770 5768 5767 5767 5766 5766 5766 5766 5767 5768 5768 5769 5770 5772 5773 5775 5776 5777 5779 5780 5782 5783 5783 5784 5785 5786 5786 5787 5787 5787 5787 5787 5786 5786 5786 5785 5785 5785 5785 5785
5771 5769 5767 5765 5764 5762 5761 5760 5760 5759 5759 5760 5761 5762 5763 5764 5766 5767 5769 5771 5772 5774 5775 5776 5777 5778 5779 5780 5781 5782 5782 5783 5783 5783 5783 5782 5782 5781 5781 5780 5780 5779 5779
5768 5765 5763 5760 5758 5756 5754 5753 5752 5752 5752 5753 5754 5755 5757 5758 5759 5761 5763 5765 5767 5769 5770 5771 5773 5773 5774 5775 5776 5777 5777 5778 5778 5778 5778 5778 5777 5777 5777 5776 5775 5774 5772
5766 5763 5760 5756 5753 5750 5748 5746 5745 5744 5744 5745 5746 5748 5750 5752 5754 5756 5758 5760 5762 5764 5765 5767 5768 5769 5770 5771 5772 5772 5773 5773 5774 5774 5774 5774 5773 5773 5772 5771 5769 5768 5766